Regional Weather Roundup
Issued by NWS

Home | Current Version | Previous Version | Text Only | Print | Product List | Glossary Off
Versions: 1 2 3 4 5 6 7 8 9 10 11 12 13 14 15 16 17 18 19 20 21 22 23 24 25 26 27 28 29 30 31 32 33 34 35 36 37 38 39 40 41 42 43 44 45 46 47 48 49 50

000
ASUS43 KMPX 172110
RWRMN
WEATHER ROUNDUP FOR MINNESOTA
NATIONAL WEATHER SERVICE TWIN CITIES/CHANHASSEN MN
400 PM CDT WED SEP 17 2014


NOTE: "FAIR" INDICATES FEW OR NO CLOUDS BELOW 12,000 FEET WITH NO
SIGNIFICANT WEATHER AND/OR OBSTRUCTIONS TO VISIBILITY. N/A MEANS
CURRENT SKY AND/OR WEATHER CONDITIONS ARE NOT AVAILABLE.

MNZ060>063-068>070-172200-
   Twin Cities Metro

CITY           SKY/WX    TMP DP  RH WIND       PRES   REMARKS
TWIN CITIES    MOSUNNY   76  52  43 VRB3      29.94S
ST PAUL        MOSUNNY   74  54  49 S5        29.94S
CRYSTAL        PTSUNNY   75  52  44 SE6       29.93S
BLAINE         PTSUNNY   72  55  56 CALM      29.95R
LAKEVILLE      PTSUNNY   72  54  53 CALM      29.95R
EDEN PRAIRIE     N/A    N/A N/A N/A MISG        N/A
SOUTH ST PAUL  MOSUNNY   73  52  48 CALM      29.94S
LAKE ELMO      FAIR      70  54  56 CALM      29.96S
$$
MNZ001>005-007-008-013>017-022>024-027-028-172200-
   Northwest Minnesota

CITY           SKY/WX    TMP DP  RH WIND       PRES   REMARKS
BEMIDJI        MOSUNNY   65  51  60 NE9       29.99R
HALLOCK        SUNNY     61  45  55 NE9       30.04S
ROSEAU         PTSUNNY   54  43  66 E14       30.07S
WARROAD        CLOUDY    48  43  81 NE12      30.09S
THIEF RVR FALL SUNNY     63  46  55 NE10      30.02S
CROOKSTON      SUNNY     64  48  55 N8        30.01S
FOSSTON        MOSUNNY   66  54  63 NE6       30.00S
DETROIT LAKES  SUNNY     72  45  37 NE5       29.97S
MOORHEAD       SUNNY     73  46  38 N8        29.97S
PARK RAPIDS    SUNNY     73  43  33 N5        29.95S
MAHNOMEN       FAIR      70  50  49 N9        29.97S
$$
MNZ006-009>011-018-025>026-172200-
   North Central Minnesota

CITY           SKY/WX    TMP DP  RH WIND       PRES   REMARKS
BAUDETTE       MOSUNNY   55  43  63 N13       30.07R
FLAG ISLAND    CLOUDY    46  39  76 N9        30.09R
INTL FALLS     CLOUDY    52  41  66 N12       30.06R
WASKISH        MOSUNNY   63  46  55 N8        30.02R
LONGVILLE      SUNNY     70  52  52 NW5       29.97R
GRAND RAPIDS   CLOUDY    64  48  55 N6        29.98R
CRANE LAKE     PTSUNNY   54  43  66 NE3       30.06R
ORR            MOSUNNY   61  41  48 CALM      30.00R
COOK           MOSUNNY   61  46  59 NE7       30.01R
WALKER         FAIR      66  50  56 E5        29.97R
$$
MNZ012-019>021-037-172200-
   Northeast Minnesota

CITY           SKY/WX    TMP DP  RH WIND       PRES   REMARKS
DULUTH         PTSUNNY   49  43  80 E16       30.01R
ELY            CLOUDY    50  43  76 E8        30.04R
HIBBING        MOSUNNY   66  48  52 N10       29.99R
EVELETH        CLOUDY    59  46  63 NE7       30.00S
DULUTH HARBOR  CLOUDY    52  46  82 NE22G29   30.04R
TWO HARBORS    CLOUDY    46  39  76 E12G20    30.02S
SILVER BAY     MOSUNNY   43  43 100 NE9       30.04S
GRAND MARAIS     N/A     45  41  86 NE10      30.09R
G MARAIS ARPRT CLOUDY    43  36  75 N6        30.06R
$$
MNZ029>031-032-039>041-046>048-054>057-064-172200-
   West Central Minnesota

CITY           SKY/WX    TMP DP  RH WIND       PRES   REMARKS
FERGUS FALLS   SUNNY     73  39  29 E6        29.94F
WHEATON        SUNNY     72  52  49 NE6       29.95F
MORRIS         MOSUNNY   75  52  43 NE5       29.93S
ALEXANDRIA     SUNNY     73  53  49 VRB7      29.97S
ELBOW LAKE     FAIR      73  53  49 E7        29.95S
WADENA         SUNNY     72  46  40 NE6       29.96S
GLENWOOD       SUNNY     72  54  53 NE8       29.96S
APPLETON       PTSUNNY   79  52  38 N7        29.93S
BENSON         MOSUNNY   73  54  49 CALM      29.94R
ORTONVILLE     SUNNY     73  50  43 CALM      29.94S
MADISON        SUNNY     75  57  53 NE3       29.93F
WILLMAR        FAIR      75  48  38 E6        29.95S
$$
MNZ033>034-036-042>043-049>051-058-059-172200-
   Central Minnesota

CITY           SKY/WX    TMP DP  RH WIND       PRES   REMARKS
ST CLOUD       MOSUNNY   76  52  43 CALM      29.94S
SAUK CENTRE    FAIR      72  52  50 E5        29.95S
PAYNESVILLE    MOSUNNY   68  53  57 N6        29.95S
AITKIN         PTSUNNY   73  48  40 W3        29.94S
PINE RIVER     SUNNY     72  52  49 N6        29.99S
BRAINERD       SUNNY     71  48  43 NW5       29.96S
STAPLES        SUNNY     72  45  37 E5        29.96S
LONG PRAIRIE   FAIR      68  52  56 CALM      29.96S
LITTLE FALLS   SUNNY     70  50  49 CALM      29.96S
LITCHFIELD     MOSUNNY   75  54  46 NE5       29.95S
BUFFALO        SUNNY     73  53  51 CALM      29.95F
MAPLE LAKE     MOSUNNY   71  56  58 CALM      29.95S
$$
MNZ037-044-045-052-053-172200-
   East Central Minnesota

CITY           SKY/WX    TMP DP  RH WIND       PRES   REMARKS
PRINCETON      SUNNY     73  50  43 NW2       29.95S
MORA           SUNNY     70  50  49 CALM      29.97R
CAMBRIDGE      SUNNY     73  55  53 CALM      29.93S
RUSH CITY      SUNNY     71  50  47 CALM      29.95S
MOOSE LAKE     PTSUNNY   63  50  63 NE7       29.95R
HINCKLEY       FAIR      72  52  49 CALM      29.95R
CLOQUET        CLOUDY    52  45  76 E17       30.00R
MCGREGOR       PTSUNNY   72  48  43 W5        29.95S
$$
MNZ071>073-080-081-089-090-097-098-172200-
   Southwest Minnesota

CITY           SKY/WX    TMP DP  RH WIND       PRES   REMARKS
MONTEVIDEO     SUNNY     79  55  44 CALM      29.94S
GRANITE FALLS  MOSUNNY   73  51  46 CALM      29.94S
CANBY          MOSUNNY   72  56  57 N3        29.95S
MARSHALL       SUNNY     73  54  49 E7        29.93S
REDWOOD FALLS  SUNNY     75  51  43 CALM      29.92F
OLIVIA         SUNNY     73  52  46 N3        29.93S
PIPESTONE      MOSUNNY   73  52  46 NE3       29.94S
WINDOM         MOSUNNY   73  57  56 CALM      29.94S
WORTHINGTON    SUNNY     73  55  53 SE3       29.94R
JACKSON        MOSUNNY   75  52  43 S3        29.94S
TRACY          MOSUNNY   75  55  49 CALM      29.94S
SLAYTON        MOSUNNY   72  53  50 CALM      29.94S
$$
MNZ065>067-074>077-082>085-091>093-172200-
   South Central Minnesota

CITY           SKY/WX    TMP DP  RH WIND       PRES   REMARKS
MANKATO        SUNNY     73  52  46 E5        29.94S
NEW ULM        SUNNY     73  55  53 S3        29.93S
ST JAMES       CLOUDY    73  55  53 CALM      29.94S
FAIRMONT       MOSUNNY   77  54  44 CALM      29.93S
GLENCOE        MOSUNNY   74  50  43 CALM      29.94S
FARIBAULT      SUNNY     77  45  31 CALM      29.95S
OWATONNA       MOSUNNY   73  52  46 CALM      29.95S
WASECA         SUNNY     72  46  40 E3        29.96S
ALBERT LEA     MOSUNNY   72  52  49 S3        29.95S
$$
MNZ078>079-086>088-094>096-172200-
   Southeast Minnesota

CITY           SKY/WX    TMP DP  RH WIND       PRES   REMARKS
ROCHESTER      MOSUNNY   69  50  50 SW6       29.97S
RED WING       CLOUDY    75  50  41 SE5       29.93S
STANTON        PTSUNNY   72  52  48 CALM      29.93S
DODGE CENTER   MOSUNNY   72  52  49 CALM      29.96S
WINONA         PTSUNNY   73  54  49 SE5       29.95S
AUSTIN         MOSUNNY   72  54  53 CALM      29.95S
PRESTON        MOSUNNY   69  56  63 SW6       29.97S
$$
ABBREVIATIONS USED IN REMARKS
   TC - TEMPERATURES IN CELSIUS
  WCI - WIND CHILL INDEX
   HX - HEAT INDEX
  VSB - VISIBILITY
$$


USA.gov is the U.S. government's official web portal to all federal, state and local government web resources and services.